Regional Weather Roundup
Issued by NWS

Home | Current Version | Previous Version | Graphics & Text | Print | Product List | Glossary On
Versions: 1 2 3 4 5 6 7 8 9 10 11 12 13 14 15 16 17 18 19 20 21 22 23 24 25 26 27 28 29 30 31 32 33 34 35 36 37 38 39 40 41 42 43 44 45 46 47 48 49 50
000
ASUS45 KBOU 191607
RWRCO

WEATHER ROUNDUP FOR COLORADO
NATIONAL WEATHER SERVICE DENVER/BOULDER CO
1000 AM MDT SUN APR 19 2015

NOTE: "FAIR" INDICATES FEW OR NO CLOUDS BELOW 12000 FEET WITH NO
SIGNIFICANT WEATHER AND/OR OBSTRUCTIONS TO VISIBILITY.

COZ001>005-013-030-031-191700-
...NORTHWEST COLORADO...

CITY           SKY/WX    TMP DP  RH WIND       PRES   REMARKS
CRAIG          LGT RAIN  37  32  82 CALM      30.19R
HAYDEN         CLOUDY    34  28  80 SE3       30.17S
MEEKER         LGT RAIN  38  33  82 CALM      30.17F
MOUNT WERNER   NOT AVBL
STEAMBOAT SPGS CLOUDY    34  28  80 CALM      30.16S
WALDEN         CLOUDY    30  21  69 NW3       30.15F
$$

COZ006>008-011-191700-
...WEST CENTRAL VALLEYS...

CITY           SKY/WX    TMP DP  RH WIND       PRES   REMARKS
GRAND JUNCTION SUNNY     46  38  73 SE12      30.15S
MONTROSE       SUNNY     45  37  73 SE12      30.17F
EAGLE          CLOUDY    37  36  93 CALM      30.17F
RIFLE          PTSUNNY   37  34  89 N3        30.17S FOG
DELTA          CLOUDY    40  40  99 NE6       30.18F
NUCLA          SUNNY     48  32  53 E8        30.18F
$$

COZ017>023-064>068-191700-
...SOUTHWEST COLORADO...

CITY           SKY/WX    TMP DP  RH WIND       PRES   REMARKS
DURANGO        SUNNY     47  25  42 CALM      30.09F
CORTEZ         SUNNY     50  32  50 VRB3      30.11F
PAGOSA SPRINGS SUNNY     46  14  27 CALM      30.11F
TELLURIDE      PTSUNNY   33  26  74 CALM      30.22S
WOLF CREEK PAS SUNNY     27  12  54 NE12G20   30.21R WCI  16
$$

COZ009-010-012-014-032>034-037-058>063-191700-
...CENTRAL COLORADO...

CITY           SKY/WX    TMP DP  RH WIND       PRES   REMARKS
ASPEN          PTSUNNY   35  29  78 NW5       30.14S WCI  31
BUENA VISTA    MOSUNNY   31  21  68 CALM      30.12F
COPPER MTN     CLOUDY    25  19  80 W15G24    30.15R WCI  12
BERTHOUD PASS  CLOUDY    14   7  73 MISG      30.11S
COTTONWOOD PAS MOSUNNY   34  21  60 E7        30.13S WCI  28
GUNNISON       SUNNY     36  28  75 NE3       30.18F
KREMMLING      FLURRIES  34  23  64 NW7       30.17S WCI  28
LEADVILLE      CLOUDY    31  18  58 CALM      30.11F
SALIDA         MOSUNNY   38  25  59 CALM      30.19F
SUNLIGHT       CLOUDY   N/A N/A N/A CALM      30.22S
WILKERSON PASS FOG       25  23  93 N5        30.15S VSB 1/2 WCI  19
$$

COZ069>075-191700-
...SAN LUIS VALLEY/SANGRE DE CRISTO MOUNTAINS...

CITY           SKY/WX    TMP DP  RH WIND       PRES   REMARKS
ALAMOSA        SUNNY     45  22  40 N14       30.12S
LA VETA PASS   FOG       27  23  86 MISG      30.16R VSB<1/4
SAGUACHE       PTSUNNY   41  27  56 N13       30.14S
$$

COZ035-036-038>040-191700-
...NORTHERN COLORADO FRONT RANGE...

CITY           SKY/WX    TMP DP  RH WIND       PRES   REMARKS
DENVER INTL AP PTSUNNY   42  26  53 N16G25    30.14S
DMNS CITY PARK   N/A     40  24  52 E3        30.14F
AURORA         PTSUNNY   40  26  58 N10       30.15F
FRONT RANGE AP PTSUNNY   43  36  75 MISG      30.14S
ERIE MUNI ARPT PTSUNNY   44  28  53 NE6       30.14F
BOULDER MUN AP CLOUDY    41  30  65 SE7       30.14S
CENTENNIAL     CLOUDY    36  26  67 NE7       30.15F
BROOMFIELD     PTSUNNY   39  28  65 VRB6      30.15F
FORT COLLINS   MOSUNNY   45  27  49 N21G29    30.13F
LONGMONT       PTSUNNY   49  31  50 SW3       30.15S
$$

COZ041-046-047-076>085-087-088-191700-
...PIKES PEAK/PALMER DIVIDE AND SOUTHERN FOOTHILLS...

CITY           SKY/WX    TMP DP  RH WIND       PRES   REMARKS
COLO. SPRINGS  PTSUNNY   37  24  59 N23G31    30.15S
A. F. ACADEMY  CLOUDY    32  25  74 N14       30.15S WCI  22
ELLICOTT       PTSUNNY  N/A N/A N/A N24       30.12R
FALCON         CLOUDY    34  24  67 N16G26    30.15S WCI  24
FORT CARSON    SUNNY     40  27  58 N25G35    30.12S
LIMON          MOSUNNY   41  26  55 N29G38    30.11R
MONUMENT HILL  CLOUDY    30  25  80 N12       30.13S WCI  21
TRINIDAD       CLOUDY    43  30  60 N18       30.14R
$$

COZ042>045-048>051-090-091-191700-
...NORTHEAST COLORADO...

CITY           SKY/WX    TMP DP  RH WIND       PRES   REMARKS
GREELEY ARPT   MOSUNNY   46  25  42 N21G29    30.14R
AKRON          MOSUNNY   42  27  55 N32G38    30.09S
BURLINGTON     MOSUNNY   46  33  60 N29G38    30.05R
WRAY           MOSUNNY   49  30  47 NW29G39   30.06S
STERLING       MOSUNNY   45  28  53 N25G37    30.09F
HOLYOKE        MOSUNNY   48  30  49 N24G36    30.06S
FORT MORGAN    MOSUNNY   45  25  45 N24G33    30.12F
$$

COZ086-089-092>099-191700-
...SOUTHEAST COLORADO...

CITY           SKY/WX    TMP DP  RH WIND       PRES   REMARKS
PUEBLO         CLOUDY    48  27  44 N26G37    30.11S
LA JUNTA       MOSUNNY   48  35  60 N24       30.12R
LAMAR          CLOUDY    48  38  68 N25G37    30.07R
SPRINGFIELD      N/A     43  37  79 N45G54    30.02R
$$



USA.gov is the U.S. government's official web portal to all federal, state and local government web resources and services.